| time (UTC) | temp C | wind direction | speed KPH | gust KPH | rain 1hr cm | rain 24hr cm | rain mn cm | humidity % | barometer mb |
| 20260901013538 | 26 | 114 | 0.0 | 0.0 | 0.00 | 0.00 | 0.00 | 96 | 1016.6 |
| 20260901012739 | 26 | 136 | 0.0 | 0.0 | 0.00 | 0.00 | 0.00 | 96 | 1016.5 |
| 20260901011220 | 27 | 149 | 0.0 | 0.0 | 0.00 | 0.00 | 0.00 | 95 | 1016.4 |
| 20260901005027 | 27 | 97 | 0.0 | 0.0 | 0.00 | 0.00 | 0.00 | 95 | 1016.3 |
| 20260901003524 | 27 | 97 | 0.0 | 0.0 | 0.00 | 0.03 | 0.00 | 94 | 1016.2 |
| 20260901002010 | 27 | 97 | 0.0 | 0.0 | 0.00 | 0.36 | 0.00 | 93 | 1016.2 |
| 20260901000508 | 28 | 97 | 0.0 | 0.0 | 0.00 | 0.36 | 0.00 | 92 | 1016.1 |
| 20260831235651 | 28 | 98 | 0.0 | 0.0 | 0.00 | 0.36 | 0.00 | 90 | 1016.0 |
| 20260831233453 | 28 | 140 | 0.0 | 0.0 | 0.00 | 0.36 | 0.00 | 86 | 1016.1 |
| 20260831231951 | 29 | 33 | 0.0 | 0.0 | 0.00 | 0.36 | 0.00 | 85 | 1016.0 |
| 20260831230424 | 29 | 33 | 0.0 | 0.0 | 0.00 | 0.36 | 0.00 | 85 | 1016.2 |
| 20260831224925 | 30 | 33 | 0.0 | 0.0 | 0.00 | 0.36 | 0.00 | 83 | 1016.4 |
| 20260831223419 | 30 | 33 | 0.0 | 0.0 | 0.00 | 0.36 | 0.00 | 83 | 1016.5 |
| 20260831221905 | 30 | 33 | 0.0 | 0.0 | 0.00 | 0.36 | 0.00 | 83 | 1016.7 |
| 20260831220406 | 30 | 33 | 0.0 | 0.0 | 0.00 | 0.36 | 0.00 | 83 | 1016.8 |
| 20260831214845 | 30 | 258 | 0.0 | 0.0 | 0.00 | 0.36 | 0.00 | 84 | 1016.9 |
| 20260831213341 | 30 | 271 | 0.0 | 0.0 | 0.00 | 0.36 | 0.00 | 81 | 1016.8 |
| 20260831211843 | 30 | 17 | 0.0 | 0.0 | 0.00 | 0.36 | 0.00 | 81 | 1016.6 |
| 20260831210324 | 30 | 276 | 0.0 | 0.0 | 0.00 | 0.36 | 0.00 | 82 | 1016.6 |
| 20260831204806 | 30 | 270 | 0.0 | 0.0 | 0.00 | 0.36 | 0.00 | 82 | 1016.5 |
| 20260831203302 | 30 | 268 | 0.0 | 0.0 | 0.00 | 0.36 | 0.00 | 80 | 1016.6 |
| 20260831201803 | 30 | 295 | 0.0 | 0.0 | 0.00 | 0.36 | 0.00 | 78 | 1016.6 |
| 20260831200257 | 30 | 241 | 0.0 | 0.0 | 0.00 | 0.36 | 0.00 | 77 | 1016.7 |
| 20260831194759 | 30 | 281 | 0.0 | 0.0 | 0.00 | 0.36 | 0.00 | 77 | 1016.6 |
| 20260831193255 | 30 | 213 | 0.0 | 0.0 | 0.00 | 0.36 | 0.00 | 77 | 1016.7 |
| 20260831191752 | 30 | 290 | 0.0 | 0.0 | 0.00 | 0.36 | 0.00 | 76 | 1017.0 |
| 20260831190251 | 31 | 270 | 0.0 | 0.0 | 0.00 | 0.36 | 0.00 | 78 | 1017.2 |
| 20260831184749 | 30 | 294 | 0.0 | 0.0 | 0.00 | 0.36 | 0.00 | 80 | 1017.1 |
| 20260831183942 | 31 | 285 | 0.0 | 0.0 | 0.00 | 0.36 | 0.00 | 78 | 1017.1 |
| 20260831181746 | 31 | 188 | 0.0 | 0.0 | 0.00 | 0.36 | 0.00 | 77 | 1017.2 |
| 20260831180242 | 32 | 136 | 0.0 | 0.0 | 0.00 | 0.36 | 0.00 | 76 | 1017.2 |
| 20260831175434 | 31 | 101 | 0.0 | 0.0 | 0.00 | 0.36 | 0.00 | 78 | 1017.2 |
| 20260831173932 | 31 | 62 | 0.0 | 0.0 | 0.00 | 0.36 | 0.00 | 79 | 1017.4 |
| 20260831171734 | 30 | 85 | 0.0 | 8.0 | 0.00 | 0.36 | 0.00 | 80 | 1017.5 |
| 20260831170235 | 30 | 88 | 0.0 | 8.0 | 0.00 | 0.36 | 0.00 | 80 | 1017.7 |
| 20260831164723 | 30 | 57 | 0.0 | 6.4 | 0.00 | 0.36 | 0.00 | 81 | 1017.8 |
| 20260831163218 | 30 | 64 | 1.6 | 9.7 | 0.00 | 0.36 | 0.00 | 80 | 1018.0 |
| 20260831161718 | 30 | 69 | 0.0 | 6.4 | 0.00 | 0.36 | 0.00 | 81 | 1018.2 |
| 20260831160208 | 30 | 74 | 1.6 | 8.0 | 0.00 | 0.36 | 0.00 | 82 | 1018.1 |
| 20260831154708 | 30 | 58 | 1.6 | 9.7 | 0.00 | 0.36 | 0.00 | 84 | 1017.8 |
| 20260831153914 | 29 | 59 | 1.6 | 9.7 | 0.00 | 0.36 | 0.00 | 86 | 1017.8 |
| 20260831152356 | 28 | 340 | 1.6 | 11.3 | 0.00 | 0.36 | 0.00 | 87 | 1018.0 |
| 20260831150203 | 28 | 327 | 1.6 | 12.9 | 0.00 | 0.36 | 0.00 | 89 | 1018.1 |
| 20260831144701 | 28 | 53 | 0.0 | 9.7 | 0.00 | 0.36 | 0.00 | 89 | 1017.9 |
| 20260831143158 | 28 | 24 | 1.6 | 11.3 | 0.00 | 0.36 | 0.00 | 92 | 1017.6 |
| 20260831141654 | 28 | 64 | 1.6 | 9.7 | 0.00 | 0.36 | 0.00 | 92 | 1017.7 |
| 20260831140849 | 26 | 52 | 1.6 | 11.3 | 0.00 | 0.36 | 0.00 | 95 | 1017.8 |
| 20260831134653 | 26 | 18 | 1.6 | 9.7 | 0.00 | 0.36 | 0.00 | 97 | 1017.9 |
| 20260831133144 | 25 | 33 | 0.0 | 1.6 | 0.00 | 0.36 | 0.00 | 100 | 1017.9 |
| 20260831131643 | 25 | 68 | 0.0 | 4.8 | 0.00 | 0.36 | 0.00 | 100 | 1017.9 |
| 20260831130137 | 24 | 53 | 0.0 | 8.0 | 0.00 | 0.36 | 0.00 | 100 | 1018.0 |
| 20260831124617 | 23 | 48 | 0.0 | 1.6 | 0.00 | 0.36 | 0.00 | 100 | 1017.9 |
| 20260831123115 | 23 | 48 | 0.0 | 3.2 | 0.00 | 0.36 | 0.00 | 100 | 1017.8 |
| 20260831121553 | 22 | 111 | 0.0 | 3.2 | 0.00 | 0.36 | 0.00 | 100 | 1017.8 |
| 20260831120046 | 22 | 110 | 0.0 | 1.6 | 0.00 | 0.36 | 0.00 | 100 | 1017.6 |
| 20260831115251 | 22 | 110 | 0.0 | 1.6 | 0.00 | 0.36 | 0.00 | 100 | 1017.5 |
| 20260831113750 | 22 | 110 | 0.0 | 0.0 | 0.00 | 0.36 | 0.00 | 100 | 1017.0 |
| 20260831111542 | 22 | 110 | 0.0 | 0.0 | 0.00 | 0.36 | 0.00 | 100 | 1017.2 |
| 20260831110039 | 22 | 110 | 0.0 | 0.0 | 0.00 | 0.36 | 0.00 | 100 | 1017.0 |
| 20260831104529 | 22 | 110 | 0.0 | 0.0 | 0.00 | 0.36 | 0.00 | 100 | 1016.7 |
| 20260831103024 | 22 | 110 | 0.0 | 0.0 | 0.00 | 0.36 | 0.00 | 100 | 1016.5 |
| 20260831101515 | 22 | 110 | 0.0 | 0.0 | 0.00 | 0.36 | 0.00 | 100 | 1016.5 |
| 20260831100007 | 22 | 110 | 0.0 | 0.0 | 0.00 | 0.36 | 0.00 | 100 | 1016.6 |
| 20260831094507 | 22 | 110 | 0.0 | 0.0 | 0.00 | 0.36 | 0.00 | 100 | 1016.5 |
| 20260831092958 | 22 | 110 | 0.0 | 0.0 | 0.00 | 0.36 | 0.00 | 100 | 1016.6 |
| 20260831091448 | 22 | 110 | 0.0 | 1.6 | 0.00 | 0.36 | 0.00 | 100 | 1016.6 |
| 20260831085944 | 22 | 110 | 0.0 | 0.0 | 0.00 | 0.36 | 0.00 | 100 | 1016.5 |
| 20260831084443 | 22 | 110 | 0.0 | 0.0 | 0.00 | 0.36 | 0.00 | 100 | 1016.4 |
| 20260831082944 | 22 | 110 | 0.0 | 0.0 | 0.00 | 0.36 | 0.00 | 100 | 1016.4 |
| 20260831081440 | 22 | 110 | 0.0 | 0.0 | 0.00 | 0.36 | 0.00 | 100 | 1016.3 |
| 20260831075943 | 22 | 110 | 0.0 | 0.0 | 0.00 | 0.36 | 0.00 | 100 | 1016.2 |
| 20260831074448 | 22 | 110 | 0.0 | 0.0 | 0.00 | 0.36 | 0.00 | 100 | 1016.2 |
| 20260831072934 | 22 | 110 | 0.0 | 0.0 | 0.00 | 0.36 | 0.00 | 100 | 1016.1 |
| 20260831071425 | 22 | 110 | 0.0 | 0.0 | 0.00 | 0.36 | 0.00 | 100 | 1016.2 |
| 20260831065925 | 22 | 110 | 0.0 | 0.0 | 0.00 | 0.36 | 0.00 | 100 | 1016.4 |
| 20260831064421 | 22 | 110 | 0.0 | 0.0 | 0.00 | 0.36 | 0.00 | 100 | 1016.5 |
| 20260831062915 | 22 | 110 | 0.0 | 0.0 | 0.00 | 0.36 | 0.00 | 100 | 1016.5 |
| 20260831061404 | 22 | 110 | 0.0 | 0.0 | 0.00 | 0.36 | 0.00 | 100 | 1016.6 |
| 20260831055856 | 22 | 110 | 0.0 | 0.0 | 0.00 | 0.36 | 0.00 | 100 | 1016.9 |
| 20260831054342 | 22 | 110 | 0.0 | 0.0 | 0.00 | 0.36 | 0.00 | 100 | 1016.7 |
| 20260831052838 | 22 | 110 | 0.0 | 0.0 | 0.00 | 0.36 | 0.00 | 100 | 1016.8 |
| 20260831051338 | 22 | 110 | 0.0 | 0.0 | 0.00 | 0.36 | 0.00 | 100 | 1016.9 |
| 20260831050539 | 22 | 110 | 0.0 | 0.0 | 0.00 | 0.36 | 0.00 | 100 | 1017.0 |
| 20260831044338 | 22 | 110 | 0.0 | 1.6 | 0.00 | 0.36 | 0.00 | 100 | 1017.0 |
| 20260831042829 | 22 | 110 | 0.0 | 3.2 | 0.00 | 0.36 | 0.00 | 100 | 1017.2 |
| 20260831041326 | 22 | 110 | 0.0 | 1.6 | 0.00 | 0.36 | 0.00 | 100 | 1017.1 |
| 20260831035825 | 22 | 110 | 0.0 | 0.0 | 0.00 | 0.36 | 0.36 | 100 | 1017.1 |
| 20260831034317 | 22 | 110 | 0.0 | 0.0 | 0.00 | 0.36 | 0.36 | 100 | 1017.1 |
| 20260831032810 | 22 | 110 | 0.0 | 0.0 | 0.00 | 0.36 | 0.36 | 100 | 1017.0 |
| 20260831031308 | 22 | 110 | 0.0 | 0.0 | 0.00 | 0.36 | 0.36 | 100 | 1017.1 |
| 20260831025749 | 22 | 110 | 0.0 | 0.0 | 0.00 | 0.36 | 0.36 | 100 | 1017.2 |
| 20260831024244 | 22 | 110 | 0.0 | 1.6 | 0.00 | 0.36 | 0.36 | 100 | 1017.3 |
| 20260831022743 | 22 | 110 | 0.0 | 3.2 | 0.00 | 0.36 | 0.36 | 100 | 1017.6 |
| 20260831021237 | 22 | 63 | 0.0 | 0.0 | 0.00 | 0.36 | 0.36 | 100 | 1017.5 |
| 20260831020409 | 22 | 63 | 0.0 | 0.0 | 0.00 | 0.36 | 0.36 | 100 | 1017.5 |